Orbital Elements at Epoch 2459139.5 (2020-Oct-17.0) TDB
Reference: JPL 1 (heliocentric ecliptic J2000)
Element | Value | Uncertainty (1-sigma) | Units |
e | .514103733011641 | 0.00085012 | |
a | 1.253580362675863 | 0.0013319 | au |
q | .6091100185941152 | 0.00041858 | au |
i | 5.749048604470418 | 0.011177 | deg |
node | 199.7391606547362 | 0.0017623 | deg |
peri | 285.7545836336827 | 0.0022616 | deg |
M | 318.2786791335883 | 0.096982 | deg |
tp | 2459198.913104485972 (2020-Dec-15.41310449) | 0.043419 | TDB |
period | 512.6567704659894 1.40 | 0.81704 0.002237 | d yr |
n | .7022242185015346 | 0.0011192 | deg/d |
Q | 1.898050706757612 | 0.0020167 | au |
|
| | Orbit Determination Parameters
Additional Information
|